User: anonymous
Location: Hepcat Sky Observatory
(29.9800°N, 95.6500°W)
Time: 18:55:58
(UTC-05:00)
Language:

Cosmos 1602 Rocket - Orbit

View from above orbital plane
View from above orbital plane
View from above satellite
View from above satellite

Ground track
Ground track

The orbit data is extracted from the following two-line orbital elements,

1 15332U 84105B   14114.28981942  .00000535  00000-0  63234-4 0  6224
2 15332 082.5358 182.5478 0021420 196.7065 206.2689 14.82688063596150
Epoch (UTC): 24 April 2014 06:57:20
Eccentricity: 0.0021420
inclination: 82.5358°
perigee height: 606 km
apogee height: 636 km
right ascension of ascending node: 182.5478°
argument of perigee: 196.7065°
revolutions per day: 14.82688063
mean anomaly at epoch: 206.2689°
orbit number at epoch: 59615

The dashed part of the orbit path shows where the satellite is in the earth's shadow,  

DLR